STARLINK-32291 (62442 NORAD) Tracking and Keplerian Element Data

This shows tracking and keplerian element data for the satellite.

Feedback or suggestion? Click here.




ElementValue
Catalog62442
NameSTARLINK-32291
Epoch Orbit649
Epoch Day35.16668981
Epoch Year2025
RAAN34.7823
Inclination53.1597
Eccentricity0.0001478
Argument of Perigee98.0089
Mean Anonmoly304.2813
Mean Motion15.39543738
Decay Rate0.00071796
L11 62442U 24251L 25035.16668981 .00071796 00000+0 17925-2 0 9997
L22 62442 53.1597 34.7823 0001478 98.0089 304.2813 15.39543738 6499



Live tracking and technical data element details for STARLINK-32291 (NORAD 62442). STARLINK-32291 can be tracked NOW for your location showing map with azimuth and elevation plus other details from your city location.







IsCatalogInMostPopularTable: catalog: 62442, numindb: 13
Update: records affected: 1



GetName: 62442 STARLINK-32291

Hit Count: updated at: Sat, 24 May 2025 15:44:13 GMT